Weather in eMalahleni

South Africa     25°52′23″S   29°12′39″E
temp.,
°C
wind,
m/s
gust,
m/s
humid.,
%
clouds,
%
prec.,
mm/h
press.,
hPa
HPBL,
m
23 october, sat
sat2323:00+18nnw11460 0.0 101327
02:00+16wsw11480 0.0 101211
05:00+14nne11430 0.0 101311
08:00+22nnw34200 0.0 1012545
11:00+29nw913160 0.0 10102654
14:00+32w1113140 0.0 10063391
17:00+30w1013130 0.0 10063276
20:00+24sw45140 0.0 100994
24 october, sun
sun2423:00+21ssw45110 0.0 101191
02:00+17s47180 0.0 101397
05:00+15sse611260 0.0 1016219
08:00+20ese994886 0.0 1016618
11:00+28n8816100 0.0 10131887
14:00+29nnw9141881 0.0 10113719
17:00+20ese91049100 0.6 1015610
20:00+12e1013730 2.1 1020317
25 october, mon
mon2523:00+12e79760 0.1 1022328
02:00+11e34795 0.1 1021171
05:00+11ese22810 0.0 102274
08:00+16ne57610 0.2 1022592
11:00+22n910468 0.0 10181297
14:00+24nnw1010396 0.0 10151698
17:00+22n11114744 0.0 10131443
20:00+17nne71074100 2.2 1019880
26 october, tue
tue2623:00+14nne8129196 1.5 1020479
02:00+14wnw2488100 1.6 1019524
05:00+15nne338398 0.0 1018359
08:00+15n458098 0.1 1021657
11:00+21n565522 0.0 10181142
14:00+26nw56390 0.0 10151786
17:00+27nnw363177 0.0 10132653
20:00+23nnw23442 0.0 101553
27 october, wed
wed2723:00+21n3756100 0.3 1017377
02:00+19nne49665 0.8 1016269
05:00+17n127394 0.0 101849
08:00+20n3560100 0.0 1020707
11:00+26n5641100 0.0 10171569
14:00+28nnw873358 0.0 10152569
17:00+23w785294 0.1 1014502
20:00+19ene6868100 2.1 1018401